Home > Weather > Bielefeld > Past weeks

Flag for Germany Weather for the Past 2 Weeks in Bielefeld, North Rhine-Westphalia, Germany

Now
43 °F

Passing clouds.


Feels Like: 36 °F
Forecast: 41 / 48 °F
Wind: 14 mph from Southwest

Location: Paderborn / Lippstadt

Current Time: Feb 7, 2016 at 6:57:43 PM

Latest Report: Feb 7, 2016 at 6:20 PM


Visibility: N/A

Pressure: 29.62 "Hg

Humidity: 71%

Dew point: 34 °F

Location of BielefeldLocation

Historic Weather in Bielefeld — Graph

°F

Bielefeld Temperature Yesterday

Maximum temperature yesterday: 52 °F (at 11:50 AM)
Minimum temperature yesterday: 45 °F (at 3:50 AM)
Average temperature yesterday: 48 °F

High & Low Weather Summary for the Past Weeks

 TemperatureHumidityPressure
High54 °F (Jan 25, 11:50 AM)100% (Jan 23, 5:50 PM)30.54 "Hg (Jan 23, 5:50 PM)
Low32 °F (Jan 30, 8:20 PM)44% (Jan 25, 8:50 PM)29.47 "Hg (Feb 7, 8:50 AM)
Average43 °F81%30.04 "Hg
* Reported Jan 23 5:20 PM — Feb 7 5:50 PM, Bielefeld, Weather by CustomWeather, © 2016

Note: Actual official high and low records may vary slightly from our data, if they occured in-between our weather recording intervals... More about our weather records

Advertising

Bielefeld Weather History for the Previous 24 Hours

 ConditionsComfort  
Time TempWeatherWind HumidityBarometerVisibility
5:50 PM
Sun, Feb 7
45 °FPassing clouds.16 mph66%29.59 "HgN/A
5:20 PM45 °FScattered clouds.9 mph71%29.59 "HgN/A
4:50 PM43 °FScattered clouds.9 mph76%29.59 "HgN/A
4:20 PM45 °FScattered clouds.13 mph71%29.59 "HgN/A
3:50 PM45 °FPartly sunny.17 mph71%29.59 "HgN/A
3:20 PM45 °FPartly sunny.15 mph71%29.56 "HgN/A
2:50 PM46 °FPartly sunny.17 mph66%29.56 "HgN/A
2:20 PM46 °FPartly sunny.17 mph71%29.56 "HgN/A
1:50 PM46 °FPartly sunny.8 mph82%29.53 "HgN/A
1:20 PM48 °FScattered clouds.14 mph82%29.53 "HgN/A
12:50 PM45 °FSprinkles. Partly sunny.13 mph93%29.53 "HgN/A
12:20 PM46 °FSprinkles. Partly sunny.12 mph82%29.53 "HgN/A
11:50 AM50 °FPartly sunny.16 mph67%29.50 "HgN/A
11:20 AM50 °FPartly sunny.17 mph62%29.50 "HgN/A
10:50 AM50 °FScattered clouds.8 mph58%29.50 "HgN/A
10:20 AM48 °FScattered clouds.7 mph62%29.50 "HgN/A
9:50 AM48 °FSunny.12 mph62%29.47 "Hg10 mi
9:20 AM48 °FSunny.15 mph62%29.47 "Hg10 mi
8:50 AM48 °FSunny.16 mph62%29.47 "Hg10 mi
8:20 AM48 °FSunny.16 mph62%29.50 "Hg10 mi
7:50 AM48 °FClear.18 mph62%29.50 "Hg10 mi
7:20 AM50 °FClear.17 mph58%29.50 "Hg10 mi
6:50 AM50 °FClear.14 mph58%29.50 "Hg10 mi
6:20 AM50 °FClear.15 mph58%29.50 "Hg10 mi
5:50 AM50 °FClear.12 mph58%29.50 "Hg10 mi
5:20 AM50 °FPassing clouds.12 mph58%29.53 "HgN/A
4:50 AM50 °FClear.10 mph58%29.56 "Hg10 mi
4:20 AM48 °FClear.15 mph62%29.56 "Hg10 mi
3:50 AM48 °FClear.17 mph62%29.56 "Hg10 mi
2:50 AM50 °FClear.21 mph58%29.56 "Hg10 mi
2:20 AM50 °FClear.18 mph58%29.56 "Hg10 mi
1:50 AM50 °FClear.17 mph58%29.59 "Hg10 mi
12:50 AM48 °FClear.13 mph62%29.62 "Hg10 mi
11:50 PM
Sat, Feb 6
48 °FClear.9 mph62%29.62 "Hg10 mi
11:20 PM48 °FClear.12 mph62%29.62 "Hg10 mi
10:50 PM48 °FClear.15 mph62%29.65 "Hg10 mi
9:50 PM50 °FClear.23 mph58%29.68 "Hg10 mi
9:20 PM50 °FClear.20 mph58%29.68 "Hg10 mi
8:50 PM48 °FClear.15 mph62%29.68 "Hg10 mi
8:20 PM48 °FClear.13 mph62%29.71 "Hg10 mi
7:50 PM48 °FClear.10 mph62%29.71 "Hg10 mi
7:20 PM46 °FClear.8 mph71%29.71 "Hg10 mi
6:50 PM48 °FPassing clouds.5 mph66%29.74 "HgN/A
6:20 PM48 °FClear.8 mph66%29.74 "Hg10 mi
Weather by CustomWeather, © 2016

See weather overviewHow to use our weather pages